Date,TemperatureHighF,TemperatureAvgF,TemperatureLowF,DewpointHighF,DewpointAvgF,DewpointLowF,HumidityHigh,HumidityAvg,HumidityLow,PressureMaxIn,PressureMinIn,WindSpeedMaxMPH,WindSpeedAvgMPH,GustSpeedMaxMPH,PrecipitationSumIn
2013-6-1,105.9,89.6,70.5,37.9,30.9,24.9,22,13,7,29.77,29.58,11,6,15,0.00
2013-6-2,104.3,88.5,73.3,44.9,37.4,30.8,26,17,10,29.60,29.43,28,12,33,0.00
2013-6-3,102.6,86.7,73.1,45.7,41.6,34.3,31,22,12,29.61,29.48,25,11,30,0.00
2013-6-4,104.3,87.0,69.8,48.6,44.1,33.3,38,24,11,29.68,29.58,23,10,29,0.00
2013-6-5,108.3,90.3,75.0,50.7,45.2,36.6,38,24,10,29.75,29.58,19,8,21,0.00
2013-6-6,111.5,93.7,78.7,48.5,43.8,34.9,32,20,9,29.69,29.54,17,7,22,0.00
2013-6-7,112.2,95.4,79.2,49.3,42.1,31.0,32,18,8,29.64,29.50,21,7,25,0.00
2013-6-8,115.4,98.7,83.1,49.9,39.9,32.8,25,15,7,29.58,29.46,29,10,36,0.00
2013-6-9,105.8,91.7,79.1,52.2,36.4,17.7,32,17,5,29.63,29.54,33,14,39,0.00
2013-6-10,93.8,81.6,71.8,43.2,31.8,18.7,30,17,8,29.68,29.58,28,17,34,0.00
2013-6-11,105.0,88.8,74.5,44.2,39.9,31.3,29,19,9,29.78,29.64,22,10,26,0.00
2013-6-12,101.8,89.3,77.3,45.4,41.0,34.4,29,19,10,29.72,29.63,25,15,33,0.00
2013-6-13,99.5,84.9,73.0,42.7,32.3,19.3,30,17,6,29.73,29.61,27,19,42,0.00
2013-6-14,99.1,82.0,65.9,38.0,28.5,-99.9,25,16,6,29.77,29.59,23,10,29,0.00
2013-6-15,98.0,83.2,69.0,36.9,32.5,22.9,29,18,7,29.72,29.62,27,14,32,0.00
2013-6-16,99.9,83.9,66.3,37.7,33.6,29.1,27,17,10,29.80,29.68,20,10,28,0.00
2013-6-17,101.5,84.8,70.7,42.1,37.8,31.8,29,20,10,29.80,29.64,23,9,32,0.00
2013-6-18,99.0,83.3,71.5,42.6,35.6,26.4,30,19,8,29.66,29.56,28,16,33,0.00
2013-6-19,95.1,78.9,66.1,39.5,33.9,24.7,33,21,10,29.67,29.55,29,16,37,0.00
2013-6-20,94.6,79.3,64.5,37.2,31.8,27.1,31,19,10,29.73,29.58,27,13,33,0.00
2013-6-21,97.4,81.2,67.0,38.9,35.3,28.1,30,20,9,29.73,29.56,24,12,31,0.00
2013-6-22,98.9,84.5,71.4,40.3,35.6,32.3,28,19,11,29.73,29.57,18,9,26,0.00
2013-6-23,96.4,81.6,69.5,43.0,39.9,36.1,31,23,14,29.60,29.45,29,14,39,0.00
2013-6-24,86.6,77.2,68.9,50.2,44.7,36.4,42,32,26,29.67,29.50,28,20,34,0.00
2013-6-25,97.8,83.0,69.5,53.3,50.7,48.0,49,34,21,29.77,29.65,25,14,31,0.00
2013-6-26,106.6,89.4,74.1,55.2,52.2,47.8,46,30,16,29.80,29.69,21,11,26,0.00
2013-6-27,108.2,92.5,77.7,57.5,53.7,47.0,48,29,14,29.87,29.75,20,9,24,0.00
2013-6-28,111.5,96.6,81.9,57.0,52.8,43.1,39,25,11,29.82,29.63,16,9,29,0.00
2013-6-29,114.3,98.2,81.9,55.3,50.6,43.1,36,22,10,29.70,29.55,19,9,22,0.00
2013-6-30,116.3,100.6,86.2,52.4,47.4,39.5,29,18,9,29.64,29.49,18,10,23,0.00